| time (UTC) | temp F | wind direction | speed MPH | gust MPH | rain 1hr in | rain 24hr in | rain mn in | humidity % | barometer mb |
| 20260504050521 | 76 | 238 | 4.0 | 12.0 | 0.00 | 0.00 | 0.00 | 27 | 1014.0 |
| 20260504045530 | 76 | 227 | 3.0 | 11.0 | 0.00 | 0.00 | 0.00 | 27 | 1014.0 |
| 20260504045026 | 76 | 235 | 3.0 | 11.0 | 0.00 | 0.00 | 0.00 | 26 | 1013.8 |
| 20260504044521 | 76 | 215 | 6.0 | 11.0 | 0.00 | 0.00 | 0.00 | 27 | 1013.9 |
| 20260504044017 | 76 | 213 | 2.0 | 6.0 | 0.00 | 0.00 | 0.00 | 27 | 1014.0 |
| 20260504043517 | 76 | 239 | 1.0 | 6.0 | 0.00 | 0.00 | 0.00 | 26 | 1014.0 |
| 20260504043013 | 76 | 230 | 0.0 | 3.0 | 0.00 | 0.00 | 0.00 | 26 | 1014.0 |
| 20260504042528 | 76 | 229 | 1.0 | 5.0 | 0.00 | 0.00 | 0.00 | 26 | 1013.9 |
| 20260504042024 | 76 | 131 | 2.0 | 7.0 | 0.00 | 0.00 | 0.00 | 26 | 1013.8 |
| 20260504041520 | 77 | 229 | 1.0 | 11.0 | 0.00 | 0.00 | 0.00 | 25 | 1013.9 |
| 20260504041016 | 77 | 221 | 1.0 | 11.0 | 0.00 | 0.00 | 0.00 | 25 | 1013.9 |
| 20260504040512 | 77 | 221 | 4.0 | 9.0 | 0.00 | 0.00 | 0.00 | 25 | 1014.0 |
| 20260504040040 | 77 | 227 | 2.0 | 11.0 | 0.00 | 0.00 | 0.00 | 24 | 1013.8 |
| 20260504035525 | 77 | 210 | 3.0 | 11.0 | 0.00 | 0.00 | 0.00 | 24 | 1013.5 |
| 20260504035022 | 77 | 208 | 4.0 | 11.0 | 0.00 | 0.00 | 0.00 | 24 | 1013.2 |
| 20260504034518 | 77 | 217 | 4.0 | 14.0 | 0.00 | 0.00 | 0.00 | 23 | 1013.1 |
| 20260504034012 | 78 | 217 | 7.0 | 16.0 | 0.00 | 0.00 | 0.00 | 23 | 1013.1 |
| 20260504033528 | 78 | 238 | 6.0 | 15.0 | 0.00 | 0.00 | 0.00 | 22 | 1013.0 |
| 20260504033025 | 78 | 262 | 7.0 | 18.0 | 0.00 | 0.00 | 0.00 | 22 | 1012.8 |
| 20260504032521 | 78 | 190 | 8.0 | 26.0 | 0.00 | 0.00 | 0.00 | 21 | 1012.8 |
| 20260504032020 | 78 | 211 | 6.0 | 26.0 | 0.00 | 0.00 | 0.00 | 21 | 1012.8 |
| 20260504031516 | 79 | 210 | 10.0 | 22.0 | 0.00 | 0.00 | 0.00 | 20 | 1012.7 |
| 20260504031011 | 79 | 26 | 10.0 | 20.0 | 0.00 | 0.00 | 0.00 | 20 | 1012.5 |
| 20260504030527 | 79 | 286 | 7.0 | 22.0 | 0.00 | 0.00 | 0.00 | 19 | 1012.3 |
| 20260504030035 | 79 | 266 | 8.0 | 20.0 | 0.00 | 0.00 | 0.00 | 19 | 1012.1 |
| 20260504025516 | 80 | 217 | 9.0 | 20.0 | 0.00 | 0.00 | 0.00 | 18 | 1012.1 |
| 20260504025012 | 80 | 221 | 7.0 | 19.0 | 0.00 | 0.00 | 0.00 | 18 | 1011.7 |
| 20260504024512 | 80 | 196 | 7.0 | 15.0 | 0.00 | 0.00 | 0.00 | 17 | 1011.7 |
| 20260504024027 | 80 | 217 | 9.0 | 15.0 | 0.00 | 0.00 | 0.00 | 17 | 1011.7 |
| 20260504023523 | 81 | 200 | 7.0 | 18.0 | 0.00 | 0.00 | 0.00 | 16 | 1011.6 |
| 20260504023019 | 81 | 219 | 7.0 | 18.0 | 0.00 | 0.00 | 0.00 | 16 | 1011.5 |
| 20260504022515 | 81 | 216 | 6.0 | 15.0 | 0.00 | 0.00 | 0.00 | 16 | 1011.4 |
| 20260504022031 | 81 | 243 | 6.0 | 15.0 | 0.00 | 0.00 | 0.00 | 16 | 1011.4 |
| 20260504021526 | 81 | 224 | 9.0 | 20.0 | 0.00 | 0.00 | 0.00 | 16 | 1011.3 |
| 20260504021026 | 82 | 250 | 7.0 | 20.0 | 0.00 | 0.00 | 0.00 | 15 | 1011.2 |
| 20260504020522 | 82 | 225 | 7.0 | 18.0 | 0.00 | 0.00 | 0.00 | 15 | 1011.2 |
| 20260504020029 | 82 | 226 | 7.0 | 20.0 | 0.00 | 0.00 | 0.00 | 15 | 1010.9 |
| 20260504015530 | 82 | 227 | 7.0 | 20.0 | 0.00 | 0.00 | 0.00 | 14 | 1011.1 |
| 20260504015026 | 83 | 213 | 6.0 | 19.0 | 0.00 | 0.00 | 0.00 | 14 | 1010.9 |
| 20260504014522 | 83 | 236 | 9.0 | 20.0 | 0.00 | 0.00 | 0.00 | 14 | 1010.8 |
| 20260504014017 | 83 | 225 | 11.0 | 20.0 | 0.00 | 0.00 | 0.00 | 13 | 1010.8 |
| 20260504013517 | 83 | 257 | 10.0 | 20.0 | 0.00 | 0.00 | 0.00 | 13 | 1010.9 |
| 20260504013032 | 84 | 229 | 11.0 | 20.0 | 0.00 | 0.00 | 0.00 | 13 | 1010.8 |
| 20260504012528 | 84 | 266 | 8.0 | 17.0 | 0.00 | 0.00 | 0.00 | 13 | 1010.8 |
| 20260504012023 | 84 | 191 | 10.0 | 17.0 | 0.00 | 0.00 | 0.00 | 12 | 1010.7 |
| 20260504011519 | 85 | 208 | 10.0 | 19.0 | 0.00 | 0.00 | 0.00 | 12 | 1010.7 |
| 20260504011016 | 85 | 186 | 9.0 | 19.0 | 0.00 | 0.00 | 0.00 | 12 | 1010.6 |
| 20260504010532 | 86 | 203 | 10.0 | 16.0 | 0.00 | 0.00 | 0.00 | 12 | 1010.9 |
| 20260504010039 | 86 | 234 | 5.0 | 14.0 | 0.00 | 0.00 | 0.00 | 11 | 1010.9 |
| 20260504005525 | 87 | 238 | 8.0 | 15.0 | 0.00 | 0.00 | 0.00 | 11 | 1011.0 |
| 20260504005021 | 87 | 208 | 7.0 | 16.0 | 0.00 | 0.00 | 0.00 | 11 | 1011.0 |
| 20260504004518 | 87 | 220 | 9.0 | 16.0 | 0.00 | 0.00 | 0.00 | 11 | 1011.1 |
| 20260504004013 | 87 | 208 | 10.0 | 16.0 | 0.00 | 0.00 | 0.00 | 11 | 1011.1 |
| 20260504003529 | 87 | 198 | 5.0 | 22.0 | 0.00 | 0.00 | 0.00 | 11 | 1011.1 |
| 20260504003025 | 87 | 219 | 7.0 | 22.0 | 0.00 | 0.00 | 0.00 | 11 | 1011.0 |
| 20260504002521 | 87 | 205 | 7.0 | 18.0 | 0.00 | 0.00 | 0.00 | 10 | 1010.9 |
| 20260504002021 | 88 | 206 | 7.0 | 18.0 | 0.00 | 0.00 | 0.00 | 11 | 1010.9 |
| 20260504001517 | 88 | 273 | 8.0 | 18.0 | 0.00 | 0.00 | 0.00 | 10 | 1010.9 |
| 20260504001013 | 88 | 183 | 8.0 | 22.0 | 0.00 | 0.00 | 0.00 | 10 | 1011.0 |
| 20260504000529 | 88 | 213 | 9.0 | 22.0 | 0.00 | 0.00 | 0.00 | 10 | 1010.7 |
| 20260504000037 | 88 | 235 | 12.0 | 20.0 | 0.00 | 0.00 | 0.00 | 10 | 1010.8 |
| 20260503235518 | 89 | 223 | 7.0 | 19.0 | 0.00 | 0.00 | 0.00 | 10 | 1010.8 |
| 20260503235014 | 89 | 255 | 8.0 | 20.0 | 0.00 | 0.00 | 0.00 | 10 | 1010.8 |
| 20260503234514 | 89 | 267 | 8.0 | 20.0 | 0.00 | 0.00 | 0.00 | 10 | 1010.9 |
| 20260503234029 | 89 | 204 | 8.0 | 16.0 | 0.00 | 0.00 | 0.00 | 10 | 1010.8 |
| 20260503233525 | 90 | 215 | 8.0 | 18.0 | 0.00 | 0.00 | 0.00 | 10 | 1010.5 |
| 20260503233021 | 90 | 233 | 7.0 | 18.0 | 0.00 | 0.00 | 0.00 | 10 | 1010.5 |
| 20260503232517 | 89 | 272 | 10.0 | 19.0 | 0.00 | 0.00 | 0.00 | 10 | 1010.4 |
| 20260503232033 | 90 | 281 | 9.0 | 20.0 | 0.00 | 0.00 | 0.00 | 10 | 1010.5 |
| 20260503231528 | 90 | 258 | 9.0 | 25.0 | 0.00 | 0.00 | 0.00 | 10 | 1010.6 |
| 20260503231028 | 91 | 215 | 11.0 | 21.0 | 0.00 | 0.00 | 0.00 | 11 | 1010.4 |
| 20260503230524 | 91 | 260 | 7.0 | 17.0 | 0.00 | 0.00 | 0.00 | 11 | 1010.4 |
| 20260503230031 | 91 | 223 | 8.0 | 16.0 | 0.00 | 0.00 | 0.00 | 11 | 1010.4 |
| 20260503225533 | 91 | 232 | 8.0 | 16.0 | 0.00 | 0.00 | 0.00 | 10 | 1010.5 |
| 20260503225029 | 92 | 260 | 4.0 | 18.0 | 0.00 | 0.00 | 0.00 | 11 | 1010.6 |
| 20260503224525 | 91 | 209 | 9.0 | 18.0 | 0.00 | 0.00 | 0.00 | 11 | 1010.9 |
| 20260503224021 | 91 | 164 | 8.0 | 15.0 | 0.00 | 0.00 | 0.00 | 12 | 1010.9 |
| 20260503223520 | 91 | 196 | 7.0 | 15.0 | 0.00 | 0.00 | 0.00 | 12 | 1010.9 |
| 20260503223016 | 91 | 180 | 3.0 | 14.0 | 0.00 | 0.00 | 0.00 | 12 | 1010.8 |
| 20260503222532 | 92 | 233 | 8.0 | 17.0 | 0.00 | 0.00 | 0.00 | 12 | 1011.2 |
| 20260503222027 | 92 | 224 | 6.0 | 17.0 | 0.00 | 0.00 | 0.00 | 13 | 1011.2 |
| 20260503221523 | 92 | 223 | 6.0 | 17.0 | 0.00 | 0.00 | 0.00 | 11 | 1011.2 |
| 20260503221019 | 91 | 210 | 8.0 | 17.0 | 0.00 | 0.00 | 0.00 | 12 | 1011.0 |
| 20260503220032 | 92 | 225 | 8.0 | 20.0 | 0.00 | 0.00 | 0.00 | 12 | 1010.9 |
| 20260503215513 | 91 | 90 | 4.0 | 10.0 | 0.00 | 0.00 | 0.00 | 14 | 1010.8 |
| 20260503215029 | 91 | 155 | 3.0 | 6.0 | 0.00 | 0.00 | 0.00 | 13 | 1010.9 |
| 20260503214525 | 89 | 159 | 1.0 | 9.0 | 0.00 | 0.00 | 0.00 | 14 | 1011.1 |
| 20260503214020 | 90 | 83 | 3.0 | 9.0 | 0.00 | 0.00 | 0.00 | 14 | 1011.2 |
| 20260503213516 | 90 | 115 | 4.0 | 11.0 | 0.00 | 0.00 | 0.00 | 14 | 1011.4 |
| 20260503212527 | 91 | 120 | 10.0 | 17.0 | 0.00 | 0.00 | 0.00 | 14 | 1011.8 |
| 20260503212026 | 90 | 116 | 6.0 | 16.0 | 0.00 | 0.00 | 0.00 | 15 | 1011.6 |
| 20260503211522 | 89 | 118 | 8.0 | 16.0 | 0.00 | 0.00 | 0.00 | 16 | 1011.8 |
| 20260503211018 | 89 | 144 | 6.0 | 13.0 | 0.00 | 0.00 | 0.00 | 17 | 1011.9 |
| 20260503210514 | 88 | 75 | 4.0 | 13.0 | 0.00 | 0.00 | 0.00 | 20 | 1012.1 |
| 20260503210041 | 88 | 104 | 5.0 | 11.0 | 0.00 | 0.00 | 0.00 | 20 | 1012.2 |
| 20260503205522 | 88 | 108 | 4.0 | 16.0 | 0.00 | 0.00 | 0.00 | 20 | 1012.4 |
| 20260503205018 | 87 | 145 | 5.0 | 16.0 | 0.00 | 0.00 | 0.00 | 21 | 1012.3 |
| 20260503204518 | 87 | 127 | 5.0 | 13.0 | 0.00 | 0.00 | 0.00 | 21 | 1012.3 |
| 20260503204015 | 87 | 130 | 6.0 | 10.0 | 0.00 | 0.00 | 0.00 | 21 | 1012.4 |
| 20260503203531 | 87 | 140 | 4.0 | 11.0 | 0.00 | 0.00 | 0.00 | 21 | 1012.4 |
| 20260503203026 | 86 | 129 | 5.0 | 11.0 | 0.00 | 0.00 | 0.00 | 22 | 1012.4 |
| 20260503202522 | 86 | 112 | 3.0 | 8.0 | 0.00 | 0.00 | 0.00 | 22 | 1012.5 |
| 20260503202018 | 86 | 154 | 3.0 | 9.0 | 0.00 | 0.00 | 0.00 | 22 | 1012.7 |
| 20260503201514 | 85 | 169 | 1.0 | 9.0 | 0.00 | 0.00 | 0.00 | 23 | 1012.6 |
| 20260503201014 | 84 | 131 | 3.0 | 14.0 | 0.00 | 0.00 | 0.00 | 24 | 1012.8 |
| 20260503200528 | 85 | 98 | 8.0 | 15.0 | 0.00 | 0.00 | 0.00 | 24 | 1012.8 |
| 20260503200036 | 86 | 96 | 9.0 | 15.0 | 0.00 | 0.00 | 0.00 | 21 | 1012.9 |
| 20260503195518 | 86 | 129 | 4.0 | 8.0 | 0.00 | 0.00 | 0.00 | 22 | 1013.0 |
| 20260503195013 | 85 | 220 | 1.0 | 9.0 | 0.00 | 0.00 | 0.00 | 22 | 1013.0 |
| 20260503194530 | 86 | 137 | 2.0 | 12.0 | 0.00 | 0.00 | 0.00 | 22 | 1013.2 |
| 20260503194026 | 85 | 119 | 3.0 | 12.0 | 0.00 | 0.00 | 0.00 | 25 | 1013.2 |
| 20260503193525 | 84 | 159 | 5.0 | 12.0 | 0.00 | 0.00 | 0.00 | 25 | 1013.3 |
| 20260503193021 | 85 | 98 | 4.0 | 12.0 | 0.00 | 0.00 | 0.00 | 26 | 1013.4 |
| 20260503192517 | 85 | 159 | 1.0 | 11.0 | 0.00 | 0.00 | 0.00 | 26 | 1013.5 |
| 20260503192012 | 84 | 137 | 5.0 | 11.0 | 0.00 | 0.00 | 0.00 | 26 | 1013.8 |
| 20260503191528 | 84 | 100 | 4.0 | 11.0 | 0.00 | 0.00 | 0.00 | 27 | 1013.7 |
| 20260503191024 | 84 | 134 | 4.0 | 11.0 | 0.00 | 0.00 | 0.00 | 27 | 1013.8 |
| 20260503190519 | 84 | 126 | 3.0 | 11.0 | 0.00 | 0.00 | 0.00 | 27 | 1013.9 |
| 20260503190030 | 84 | 112 | 4.0 | 14.0 | 0.00 | 0.00 | 0.00 | 28 | 1013.8 |
| 20260503185531 | 83 | 129 | 3.0 | 14.0 | 0.00 | 0.00 | 0.00 | 28 | 1013.8 |
| 20260503185027 | 83 | 124 | 7.0 | 14.0 | 0.00 | 0.00 | 0.00 | 28 | 1013.8 |
| 20260503184523 | 83 | 120 | 8.0 | 14.0 | 0.00 | 0.00 | 0.00 | 28 | 1014.0 |
| 20260503184019 | 82 | 129 | 7.0 | 11.0 | 0.00 | 0.00 | 0.00 | 29 | 1014.3 |
| 20260503183515 | 82 | 125 | 3.0 | 13.0 | 0.00 | 0.00 | 0.00 | 29 | 1014.3 |
| 20260503183032 | 82 | 106 | 8.0 | 13.0 | 0.00 | 0.00 | 0.00 | 29 | 1014.4 |
| 20260503182513 | 82 | 122 | 5.0 | 12.0 | 0.00 | 0.00 | 0.00 | 30 | 1014.4 |
| 20260503182030 | 82 | 82 | 6.0 | 13.0 | 0.00 | 0.00 | 0.00 | 30 | 1014.6 |
| 20260503181526 | 81 | 129 | 9.0 | 13.0 | 0.00 | 0.00 | 0.00 | 30 | 1014.7 |
| 20260503181022 | 81 | 110 | 5.0 | 14.0 | 0.00 | 0.00 | 0.00 | 30 | 1014.7 |
| 20260503180518 | 81 | 102 | 6.0 | 14.0 | 0.00 | 0.00 | 0.00 | 30 | 1014.7 |
| 20260503180027 | 81 | 67 | 7.0 | 12.0 | 0.00 | 0.00 | 0.00 | 31 | 1014.8 |
| 20260503175528 | 80 | 125 | 7.0 | 12.0 | 0.00 | 0.00 | 0.00 | 31 | 1014.8 |
| 20260503175024 | 80 | 114 | 3.0 | 11.0 | 0.00 | 0.00 | 0.00 | 31 | 1014.9 |
| 20260503174525 | 80 | 108 | 6.0 | 12.0 | 0.00 | 0.00 | 0.00 | 31 | 1014.9 |
| 20260503174022 | 80 | 133 | 6.0 | 12.0 | 0.00 | 0.00 | 0.00 | 31 | 1015.1 |
| 20260503173518 | 80 | 118 | 5.0 | 12.0 | 0.00 | 0.00 | 0.00 | 31 | 1015.0 |
| 20260503173014 | 80 | 107 | 5.0 | 11.0 | 0.00 | 0.00 | 0.00 | 31 | 1015.2 |
| 20260503172530 | 80 | 135 | 5.0 | 11.0 | 0.00 | 0.00 | 0.00 | 31 | 1015.3 |
| 20260503172027 | 80 | 113 | 5.0 | 10.0 | 0.00 | 0.00 | 0.00 | 31 | 1015.3 |
| 20260503171524 | 79 | 91 | 6.0 | 14.0 | 0.00 | 0.00 | 0.00 | 32 | 1015.2 |
| 20260503171024 | 79 | 135 | 6.0 | 14.0 | 0.00 | 0.00 | 0.00 | 32 | 1015.3 |
| 20260503170519 | 79 | 95 | 7.0 | 14.0 | 0.00 | 0.00 | 0.00 | 32 | 1015.3 |
| 20260503150513 | 76 | 112 | 1.0 | 11.0 | 0.00 | 0.00 | 0.00 | 35 | 1015.4 |
| 20260503131027 | 74 | 106 | 5.0 | 13.0 | 0.00 | 0.00 | 0.00 | 36 | 1014.5 |
| 20260503130524 | 74 | 119 | 5.0 | 13.0 | 0.00 | 0.00 | 0.00 | 36 | 1014.6 |
| 20260503110518 | 74 | 129 | 4.0 | 11.0 | 0.00 | 0.00 | 0.00 | 36 | 1014.1 |
| 20260503090513 | 76 | 119 | 7.0 | 15.0 | 0.00 | 0.00 | 0.00 | 32 | 1014.4 |
| 20260503081517 | 76 | 144 | 2.0 | 9.0 | 0.00 | 0.00 | 0.00 | 32 | 1014.6 |
| 20260503081013 | 77 | 120 | 2.0 | 10.0 | 0.00 | 0.00 | 0.00 | 32 | 1014.6 |
| 20260503080529 | 77 | 104 | 3.0 | 12.0 | 0.00 | 0.00 | 0.00 | 32 | 1014.7 |
| 20260503072516 | 77 | 117 | 4.0 | 13.0 | 0.00 | 0.00 | 0.00 | 31 | 1014.5 |
| 20260503072012 | 77 | 129 | 5.0 | 14.0 | 0.00 | 0.00 | 0.00 | 31 | 1014.7 |
| 20260503071527 | 78 | 119 | 6.0 | 14.0 | 0.00 | 0.00 | 0.00 | 30 | 1014.7 |
| 20260503071023 | 78 | 125 | 5.0 | 16.0 | 0.00 | 0.00 | 0.00 | 30 | 1014.6 |
| 20260503070523 | 78 | 76 | 7.0 | 16.0 | 0.00 | 0.00 | 0.00 | 30 | 1014.7 |
| 20260503055023 | 79 | 129 | 3.0 | 13.0 | 0.00 | 0.00 | 0.00 | 28 | 1013.8 |
| 20260503054519 | 79 | 114 | 3.0 | 11.0 | 0.00 | 0.00 | 0.00 | 28 | 1013.9 |
| 20260503054015 | 79 | 81 | 3.0 | 11.0 | 0.00 | 0.00 | 0.00 | 28 | 1013.9 |
| 20260503053511 | 79 | 125 | 5.0 | 12.0 | 0.00 | 0.00 | 0.00 | 28 | 1013.8 |
| 20260503053027 | 79 | 117 | 6.0 | 12.0 | 0.00 | 0.00 | 0.00 | 27 | 1013.9 |
| 20260503052523 | 79 | 113 | 5.0 | 12.0 | 0.00 | 0.00 | 0.00 | 27 | 1013.9 |
| 20260503052018 | 79 | 97 | 4.0 | 12.0 | 0.00 | 0.00 | 0.00 | 27 | 1014.0 |